IRNSS-1C (40269 NORAD) Tracking and Keplerian Element Data

This shows tracking and keplerian element data for the satellite.

Feedback or suggestion? Click here.




ElementValue
Catalog40269
NameIRNSS-1C
Epoch Orbit4089
Epoch Day353.85437278
Epoch Year2025
RAAN92.4798
Inclination6.0596
Eccentricity0.001806
Argument of Perigee1.3194
Mean Anonmoly25.4519
Mean Motion1.0027408
Decay Rate-1.43E-06
L11 40269U 14061A 25353.85437278 -.00000143 00000+0 00000+0 0 9992
L22 40269 6.0596 92.4798 0018060 1.3194 25.4519 1.00274080 40890



Live tracking and technical data element details for IRNSS-1C (NORAD 40269). IRNSS-1C can be tracked NOW for your location showing map with azimuth and elevation plus other details from your city location.







IsCatalogInMostPopularTable: catalog: 40269, numindb: 686
Update: records affected: 1



GetName: 40269 IRNSS-1C

Hit Count: updated at: Mon, 11 May 2026 11:08:00 GMT